Home > Time Zones > World Clock > Weather > Russia > Perm > Past weeks

Flag for Russia Weather past 2 weeks in Perm, Russia

Now
32 °F

Partly sunny.


Feels Like: 29 °F
Forecast: 25 / 38 °F
Wind: 3 mph from Northeast

Location: Perm'/Bolshoe Savino


UV Index: 0 (Low)

Visibility: N/A


Pressure: 29.74 "Hg

Humidity: 100%

Dew point: 32 °F

Location of PermLocation

Historic Weather in Perm

°F

Perm temperature yesterday

Maximum temperature yesterday: 57 °F (at 1:00 PM)
Minimum temperature yesterday: 32 °F (at 7:30 PM)
Average temperature yesterday: 44 °F

Past Weeks' High & Low Weather Summary

 TemperatureHumidityPressure
High63 °F (Apr 20, 3:00 PM)100% (Apr 18, 3:30 AM)30.51 "Hg (Apr 18, 3:30 AM)
Low10 °F (Apr 11, 7:00 AM)23% (Apr 19, 6:30 PM)29.53 "Hg (Apr 9, 7:00 AM)
Average38 °F58%30.13 "Hg
* Reported Apr 9 7:00 AM — Apr 24 7:30 AM, Perm, Weather by CustomWeather, © 2014

Note: Actual official high and low records may vary slightly from our data, if they occured in-between our weather recording intervals... More about our weather records

Advertising

Historic Weather Conditions — Data for Previous 24 hours

 ConditionsComfort  
Time TempWeatherWind HumidityBarometerVisibility
7:30 AM
Apr 24
32 °FMostly cloudy.1 mph100%29.74 "HgN/A
7:00 AM30 °FMostly cloudy.1 mph100%29.74 "HgN/A
6:30 AM30 °FMostly cloudy.1 mph100%29.74 "HgN/A
6:00 AM30 °FMostly cloudy.3 mph100%29.74 "HgN/A
5:30 AM30 °FMostly cloudy.1 mph100%29.71 "Hg6 mi
5:00 AM30 °FMostly cloudy.1 mph100%29.71 "Hg5 mi
4:30 AM30 °FSnow. Mostly cloudy.1 mph100%29.74 "Hg1 mi
4:00 AM30 °FSnow. Mostly cloudy.1 mph100%29.74 "Hg1 mi
3:30 AM30 °FSnow. Mostly cloudy.1 mph100%29.74 "Hg1 mi
3:00 AM30 °FLight snow. Mostly cloudy.1 mph100%29.74 "Hg2 mi
2:30 AM30 °FLight snow. Mostly cloudy.1 mph100%29.77 "Hg1 mi
2:00 AM30 °FLight snow. Mostly cloudy.1 mph100%29.77 "HgN/A
1:30 AM30 °FLight snow. Mostly cloudy.1 mph100%29.77 "Hg4 mi
1:00 AM30 °FLight snow. Mostly cloudy.3 mph100%29.77 "Hg3 mi
12:30 AM30 °FLight snow. Mostly cloudy.3 mph100%29.77 "Hg2 mi
12:00 AM30 °FLight snow. Mostly cloudy.3 mph100%29.77 "Hg3 mi
11:30 PM
Apr 23
32 °FHeavy snow. Dense fog.8 mph93%29.80 "Hg1 mi
11:00 PM32 °FLight snow. Mostly cloudy.6 mph100%29.80 "Hg2 mi
10:30 PM32 °FLight snow. Mostly cloudy.6 mph100%29.80 "Hg3 mi
10:00 PM32 °FHeavy snow. Dense fog.6 mph100%29.80 "Hg1 mi
9:30 PM32 °FSnow. Dense fog.6 mph100%29.77 "Hg1 mi
9:00 PM32 °FHeavy snow. Dense fog.8 mph100%29.77 "Hg1 mi
8:30 PM32 °FHeavy snow. Dense fog.3 mph100%29.77 "Hg1 mi
8:00 PM32 °FHeavy snow. Dense fog.3 mph100%29.77 "Hg1 mi
7:30 PM32 °FSnow showers. Mostly cloudy.1 mph100%29.77 "Hg1 mi
7:00 PM34 °FSnow showers. Mostly cloudy.3 mph93%29.77 "Hg1 mi
6:30 PM34 °FSnow flurries. Mostly cloudy.6 mph93%29.77 "Hg2 mi
6:00 PM37 °FSprinkles. Mostly cloudy.13 mph87%29.74 "Hg4 mi
5:30 PM39 °FSprinkles. Mostly cloudy.13 mph87%29.74 "HgN/A
5:00 PM43 °FSprinkles. Mostly cloudy.15 mph87%29.71 "HgN/A
4:30 PM50 °FSprinkles. Mostly cloudy.15 mph71%29.68 "HgN/A
4:00 PM55 °FMore clouds than sun.24 mph41%29.65 "HgN/A
3:30 PM57 °FSprinkles. More clouds than sun.24 mph39%29.65 "HgN/A
3:00 PM57 °FBroken clouds.26 mph39%29.65 "HgN/A
2:30 PM57 °FSprinkles. Broken clouds.26 mph39%29.68 "HgN/A
2:00 PM55 °FSunny.31 mph38%29.68 "Hg10 mi
1:30 PM57 °FSunny.31 mph36%29.68 "Hg10 mi
1:00 PM57 °FSunny.29 mph33%29.71 "Hg10 mi
12:30 PM55 °FPartly sunny.29 mph38%29.71 "HgN/A
12:00 PM52 °FBroken clouds.29 mph44%29.74 "HgN/A
11:30 AM50 °FBroken clouds.31 mph47%29.74 "HgN/A
11:00 AM50 °FBroken clouds.29 mph50%29.74 "HgN/A
10:30 AM48 °FBroken clouds.26 mph58%29.77 "HgN/A
10:00 AM46 °FMostly cloudy.26 mph62%29.80 "HgN/A
9:30 AM45 °FMostly cloudy.26 mph61%29.80 "HgN/A
8:30 AM43 °FSprinkles. Mostly cloudy.24 mph71%29.83 "HgN/A
8:00 AM43 °FSprinkles. Mostly cloudy.26 mph71%29.83 "HgN/A
Weather by CustomWeather, © 2014

See weather overview